Other Public Products
Issued by NWS Charleston, SC

Current Version | Previous Version | Text Only | Print | Product List | Glossary Off
Versions: 1 2 3 4 5 6 7 8 9 10 11 12 13 14 15 16 17 18 19 20 21 22 23 24 25 26 27 28 29 30 31 32 33 34 35 36 37 38 39 40 41 42 43 44 45 46 47 48 49 50

000
FPUS82 KCHS 220112
OPUCHS

TEST...KCHS/KSAV Gateway Observations...TEST
National Weather Service Charleston SC
800 PM EST TUE NOV 21 2017

NOTE: "fair" indicates few or no clouds below 12,000 feet with no
significant weather and/or obstructions to visibility.

SCZ050-WAZ558-NCZ071-TXZ119-213-PAZ071-DCZ001-FLZ074-172-MI076-
NYZ176-178-MAZ016-IL014-TNZ027-NJZ106-GAZ044-MD014-220200-

...Gateway Observations for Charleston International...

CITY           SKY/WX    TMP DP  RH WIND       PRES   REMARKS
Chas Airport   CLOUDY    63  59  87 N7        30.01S
Seattle        DRIZZLE   54  52  93 S10       29.85S
Charlotte      LGT RAIN  55  52  89 NW5       30.08R
Dallas DFW     PTCLDY    62  47  57 N15       30.08R
Dallas Love    PTCLDY    64  47  53 N15       30.09R
Philladelphia  MOCLDY    54  40  59 SW8       30.04F
Wash National  MOCLDY    54  44  69 S12       30.06R
Baltimore      CLOUDY    55  42  61 S7        30.04R
Miami          PTCLDY    78  71  79 E5        29.93R
Detroit        CLOUDY    39  37  92 W9        29.94R WCI  33
Newark         MOCLDY    52  36  54 S8        30.05S
Laguardia      MOCLDY    53  38  56 S7        30.05R
J F K          MOCLDY    50  43  77 S13       30.07S
Boston Logan   CLOUDY    51  38  60 SW13      30.01S
Ft. Lauderdale PTCLDY    77  72  84 SE7       29.91F
Chicago O`Hare MOCLDY    32  16  51 N16       30.13R WCI  21
Chicago Midway MOCLDY    33  18  53 NW9       30.13R WCI  25
Houston Bush   CLOUDY    67  63  87 NE12      29.94R
Houston Hobby  CLOUDY    68  65  90 E10       29.92R
Nashville      CLOUDY    48  30  49 CALM      30.06R
Atlanta        CLOUDY    60  55  83 SE5       30.03R

$$

GAZ044-118-TXZ119-213-NCZ071-DCZ001-MDZ014-506-PAZ021-071-NJZ106-
NYZ176-178-MAZ106-OHZ011-021-055-MIZ076-KYZ091-ILZ014-INZ047-
MNZ060-ONZ431-220200-

...Gateway Observations for Savannah International...

CITY           SKY/WX    TMP DP  RH WIND       PRES   REMARKS
Savannah Arpt  LGT RAIN  63  62  97 N6        30.00S
Atlanta        CLOUDY    60  55  83 SE5       30.03R
Charlotte      LGT RAIN  55  52  89 NW5       30.08R
Dallas DFW     PTCLDY    62  47  57 N15       30.08R
Houston Bush   CLOUDY    67  63  87 NE12      29.94R
Wash National  MOCLDY    54  44  69 S12       30.06R
Wash Dulles    CLOUDY    53  42  66 S9        30.05R
Baltimore      CLOUDY    55  42  61 S7        30.04R
Philadelphia   MOCLDY    54  40  59 SW8       30.04F
Newark         MOCLDY    52  36  54 S8        30.05S
Laguardia      MOCLDY    53  38  56 S7        30.05R
J F K          MOCLDY    50  43  77 S13       30.07S
Boston         CLOUDY    51  38  60 SW13      30.01S
Pittsburg      CLOUDY    47  30  51 S5        29.92S
Akron          CLOUDY    47  29  49 SW8       29.90S
Cleveland      CLOUDY    49  35  58 W15       29.93R
Cincinnati     CLOUDY    48  35  60 W7        29.99R
Columbus       CLOUDY    44  32  63 W7        29.94S
Detroit        CLOUDY    39  37  92 W9        29.94R WCI  33
Chicago O`Hare MOCLDY    32  16  51 N16       30.13R WCI  21
Minneapolis    CLEAR     24  12  60 NW16      30.27R WCI  11
Indianapolis   LGT SNOW  34  31  88 NW22      30.08R FOG     WCI  22
Toronto Canada LGT RAIN  43  36  75 W17       29.82R

$$




USA.gov is the U.S. government's official web portal to all federal, state and local government web resources and services.